Borden Flats Light at Fall River, MA current weather conditions

sailwx.info

Wind from 057 at 6 knots gusting 8

Air temperature 4.4° C

Last reported at 2020-Jan-25 13:48 UTC.
Time now 2020-Jan-25 14:42 UTC

Location: N 41°42' W 071°10'.
View on Google Maps.

See reports from other nearby stations

  
Tides and Currents Weather Stations Pressure Air Temp Water Temp Dewpoint Dewpoint Depression Visibility Wind Speed Wind Dir Waves Ship Positions
date/time (UTC)wind fromknots sea level pressurealtimeterstation pressurevisibilityair tempwater tempwave heightnotes
2020-Jan-25 13:48 057 6 gusting 8 4.4
2020-Jan-25 13:42 057 6 gusting 8 4.4
2020-Jan-25 13:30 060 6 gusting 11 4.4
2020-Jan-25 13:18 060 6 gusting 10 3.9
2020-Jan-25 13:12 052 6 gusting 7 3.9
2020-Jan-25 13:06 056 6 gusting 8 3.9
2020-Jan-25 12:54 054 6 gusting 9 3.9
2020-Jan-25 12:48 054 6 gusting 9 3.3
2020-Jan-25 12:42 049 6 gusting 7 3.3
2020-Jan-25 12:36 048 6 gusting 8 3.3
2020-Jan-25 12:30 041 6 gusting 9 3.3
2020-Jan-25 12:24 043 6 gusting 7 2.8
2020-Jan-25 12:18 045 6 gusting 7 2.8
2020-Jan-25 12:12 045 8 gusting 10 2.8
2020-Jan-25 12:06 043 8 gusting 10 2.2
2020-Jan-25 12:00 044 8 gusting 9 2.2
2020-Jan-25 11:54 048 7 gusting 9 2.2
2020-Jan-25 11:48 044 6 gusting 8 2.2
2020-Jan-25 11:42 043 5 gusting 6 2.2
2020-Jan-25 11:36 047 6 gusting 7 2.2
2020-Jan-25 11:30 053 6 gusting 7 2.2
2020-Jan-25 11:24 045 7 gusting 8 2.2
2020-Jan-25 11:18 045 6 gusting 7 1.7
2020-Jan-25 11:12 049 6 gusting 7 1.7
2020-Jan-25 11:06 055 6 gusting 7 1.7
2020-Jan-25 11:00 053 7 gusting 8 1.7
2020-Jan-25 10:54 048 8 gusting 9 1.7
2020-Jan-25 10:48 050 6 gusting 7 1.7
2020-Jan-25 10:42 050 6 gusting 8 1.7
2020-Jan-25 10:36 048 6 gusting 7 1.7
2020-Jan-25 10:30 055 7 gusting 8 1.7
2020-Jan-25 10:24 057 6 gusting 7 1.7
2020-Jan-25 10:18 042 6 gusting 7 1.7
2020-Jan-25 10:12 041 6 gusting 8 1.7
2020-Jan-25 10:06 047 6 gusting 7 1.7
2020-Jan-25 10:00 047 7 gusting 8 1.1
2020-Jan-25 09:54 048 6 gusting 6 1.7
2020-Jan-25 09:42 044 6 gusting 7 1.1
2020-Jan-25 09:36 046 6 gusting 6 1.1
2020-Jan-25 09:30 045 6 gusting 6 1.7
2020-Jan-25 09:24 045 5 gusting 6 1.1
2020-Jan-25 09:18 043 4 gusting 5 1.7
2020-Jan-25 09:12 041 4 gusting 6 1.7
2020-Jan-25 09:06 046 5 gusting 5 1.7
2020-Jan-25 09:00 044 5 gusting 6 1.7
2020-Jan-25 08:48 048 5 gusting 6 1.7
2020-Jan-25 08:42 047 5 gusting 6 1.7
2020-Jan-25 08:36 047 5 gusting 6 1.7
2020-Jan-25 08:30 046 6 gusting 6 1.7
2020-Jan-25 08:24 044 6 gusting 7 1.7
2020-Jan-25 08:18 048 6 gusting 7 1.7
2020-Jan-25 08:12 045 6 gusting 7 1.7
2020-Jan-25 08:06 043 6 gusting 7 1.7
2020-Jan-25 08:00 047 6 gusting 7 1.7
2020-Jan-25 07:54 046 6 gusting 7 1.7
2020-Jan-25 07:48 043 7 gusting 8 1.7
2020-Jan-25 07:42 042 7 gusting 8 1.7
2020-Jan-25 07:36 041 6 gusting 8 1.7
2020-Jan-25 07:30 035 6 gusting 7 1.7
2020-Jan-25 07:24 033 6 gusting 7 1.7
2020-Jan-25 07:18 035 7 gusting 8 1.7
2020-Jan-25 07:12 036 7 gusting 8 1.7
2020-Jan-25 07:06 039 8 gusting 9 1.7
2020-Jan-25 07:00 040 8 gusting 9 1.7
2020-Jan-25 06:54 045 9 gusting 10 1.7
2020-Jan-25 06:48 041 9 gusting 10 1.7
2020-Jan-25 06:42 041 8 gusting 9 1.7
2020-Jan-25 06:36 039 9 gusting 10 1.7
2020-Jan-25 06:30 041 8 gusting 9 1.7
2020-Jan-25 06:24 042 8 gusting 9 1.7
2020-Jan-25 06:18 041 9 gusting 10 1.7
2020-Jan-25 06:12 044 9 gusting 10 1.7
2020-Jan-25 06:06 043 10 gusting 11 1.7
2020-Jan-25 06:00 044 9 gusting 10 1.7
2020-Jan-25 05:54 041 8 gusting 9 1.7
2020-Jan-25 05:48 042 8 gusting 10 1.7
2020-Jan-25 05:42 041 8 gusting 9 1.7
2020-Jan-25 05:36 043 8 gusting 9 1.7
2020-Jan-25 05:30 041 7 gusting 8 1.7
2020-Jan-25 05:24 041 6 gusting 7 1.7
2020-Jan-25 05:18 039 7 gusting 8 1.7
2020-Jan-25 05:12 035 6 gusting 7 1.7
2020-Jan-25 05:06 033 7 gusting 8 1.7
2020-Jan-25 05:00 034 6 gusting 8 2.2
2020-Jan-25 04:54 039 6 gusting 7 2.2
2020-Jan-25 04:48 044 6 gusting 8 2.2
2020-Jan-25 04:42 044 6 gusting 7 2.2
2020-Jan-25 04:36 044 5 gusting 6 2.2
2020-Jan-25 04:30 048 4 gusting 5 2.2
2020-Jan-25 04:24 037 4 gusting 5 2.8
2020-Jan-25 04:12 020 5 gusting 6 2.8
2020-Jan-25 04:06 017 6 gusting 6 2.8
2020-Jan-25 04:00 027 5 gusting 6 2.8
2020-Jan-25 03:54 033 5 gusting 6 2.8
2020-Jan-25 03:48 038 5 gusting 6 2.8
2020-Jan-25 03:42 041 5 gusting 6 2.8
2020-Jan-25 03:36 036 5 gusting 6 2.8
2020-Jan-25 03:30 045 4 gusting 5 2.8
2020-Jan-25 03:24 049 6 gusting 6 2.8
2020-Jan-25 03:18 043 6 gusting 6 2.8
2020-Jan-25 03:12 041 6 gusting 6 2.8
2020-Jan-25 03:06 044 6 gusting 6 2.8
2020-Jan-25 03:00 044 6 gusting 6 2.8
2020-Jan-25 02:54 039 6 gusting 6 2.8
2020-Jan-25 02:48 041 6 gusting 7 2.8
2020-Jan-25 02:42 040 6 gusting 6 2.8
2020-Jan-25 02:36 035 6 gusting 6 2.8
2020-Jan-25 02:24 044 6 gusting 6 3.3
2020-Jan-25 02:18 044 6 gusting 7 3.3
2020-Jan-25 02:12 043 6 gusting 7 3.3
2020-Jan-25 02:06 042 6 gusting 6 3.3
2020-Jan-25 02:00 045 6 gusting 7 3.3
2020-Jan-25 01:54 051 5 gusting 6 3.3
2020-Jan-25 01:48 054 5 gusting 6 3.3
2020-Jan-25 01:42 050 5 gusting 6 3.3
2020-Jan-25 01:36 051 5 gusting 5 3.3
2020-Jan-25 01:30 049 5 gusting 5 3.3
2020-Jan-25 01:24 044 6 gusting 6 3.3
2020-Jan-25 01:18 043 6 gusting 6 3.3
2020-Jan-25 01:12 045 6 gusting 6 3.3
2020-Jan-25 01:06 038 6 gusting 7 3.3
2020-Jan-25 01:00 037 6 gusting 6 3.9
2020-Jan-25 00:54 039 6 gusting 7 3.9
2020-Jan-25 00:48 039 6 gusting 7 3.9
2020-Jan-25 00:36 034 6 gusting 6 3.9
2020-Jan-25 00:30 027 5 gusting 6 3.9
2020-Jan-25 00:24 033 5 gusting 6 3.9
2020-Jan-25 00:18 029 6 gusting 6 3.9
2020-Jan-25 00:06 039 5 gusting 6 4.4
2020-Jan-24 23:48 027 5 gusting 6 4.4
2020-Jan-24 23:42 030 6 gusting 7 5.0
2020-Jan-24 23:36 032 6 gusting 7 5.0
2020-Jan-24 23:30 047 7 gusting 9 5.0
2020-Jan-24 23:24 050 6 gusting 7 5.0
2020-Jan-24 23:18 054 6 gusting 9 5.6
2020-Jan-24 23:12 058 7 gusting 8 5.6
2020-Jan-24 23:06 057 7 gusting 9 5.6
2020-Jan-24 23:00 061 9 gusting 12 5.6
2020-Jan-24 22:48 070 10 gusting 13 6.1
2020-Jan-24 22:42 069 9 gusting 12 6.1
2020-Jan-24 22:36 069 8 gusting 11 6.1
2020-Jan-24 22:30 068 8 gusting 11 6.1
2020-Jan-24 22:24 067 7 gusting 10 6.7
2020-Jan-24 22:18 069 8 gusting 10 6.7
2020-Jan-24 22:06 066 8 gusting 10 7.2
2020-Jan-24 22:00 070 8 gusting 9 7.2
2020-Jan-24 21:54 074 7 gusting 10 7.8
2020-Jan-24 21:48 077 6 gusting 7 8.3
2020-Jan-24 21:42 065 6 gusting 8 8.3
2020-Jan-24 21:36 069 7 gusting 9 8.3
2020-Jan-24 21:30 067 8 gusting 10 8.9
2020-Jan-24 21:24 059 8 gusting 9 8.9
2020-Jan-24 21:18 057 8 gusting 11 8.9
2020-Jan-24 21:12 048 8 gusting 9 9.4
2020-Jan-24 21:06 039 7 gusting 10 10.0
2020-Jan-24 21:00 053 6 gusting 7 10.0
2020-Jan-24 20:54 040 9 gusting 12 10.0
2020-Jan-24 20:48 048 8 gusting 10 10.0
2020-Jan-24 20:42 037 8 gusting 11 9.4
2020-Jan-24 20:36 038 8 gusting 9 10.0
2020-Jan-24 20:30 042 8 gusting 10 10.0
2020-Jan-24 20:24 034 9 gusting 11 10.0
2020-Jan-24 20:18 042 7 gusting 9 10.6
2020-Jan-24 20:12 039 9 gusting 12 10.6
2020-Jan-24 20:06 049 6 gusting 7 10.6
2020-Jan-24 20:00 043 7 gusting 9 11.1
2020-Jan-24 19:54 035 7 gusting 8 10.6
2020-Jan-24 19:48 038 6 gusting 8 10.6
2020-Jan-24 19:42 023 9 gusting 10 10.6
2020-Jan-24 19:36 028 9 gusting 10 10.0
2020-Jan-24 19:30 036 10 gusting 12 10.0
2020-Jan-24 19:24 038 10 gusting 12 10.0
2020-Jan-24 19:18 037 9 gusting 10 10.0
2020-Jan-24 19:12 034 7 gusting 8 10.0
2020-Jan-24 19:06 037 8 gusting 9 10.0
2020-Jan-24 19:00 032 8 gusting 9 10.0
2020-Jan-24 18:54 040 8 gusting 9 10.6
2020-Jan-24 18:48 033 7 gusting 9 10.0
2020-Jan-24 18:42 038 6 gusting 7 10.0
2020-Jan-24 18:36 034 6 gusting 8 9.4
2020-Jan-24 18:30 043 6 gusting 7 9.4
2020-Jan-24 18:24 044 7 gusting 9 8.3
2020-Jan-24 18:18 041 6 gusting 8 8.3
2020-Jan-24 18:12 047 7 gusting 8 8.9
2020-Jan-24 18:06 051 8 gusting 10 8.3
2020-Jan-24 18:00 046 9 gusting 11 8.9
2020-Jan-24 17:54 053 7 gusting 9 8.9
2020-Jan-24 17:48 050 7 gusting 8 8.9
2020-Jan-24 17:42 050 6 gusting 7 8.9
2020-Jan-24 17:36 050 7 gusting 8 8.9
2020-Jan-24 17:30 050 6 gusting 7 8.9
2020-Jan-24 17:24 041 6 gusting 6 8.9
2020-Jan-24 17:18 045 5 gusting 6 8.9
2020-Jan-24 17:12 038 4 gusting 5 8.3
2020-Jan-24 17:06 044 6 gusting 6 8.3
2020-Jan-24 17:00 044 6 gusting 6 8.3
2020-Jan-24 16:54 047 6 gusting 6 8.3
2020-Jan-24 16:48 049 5 gusting 6 8.3
2020-Jan-24 16:42 041 5 gusting 6 8.3
2020-Jan-24 16:36 036 4 gusting 5 8.3
2020-Jan-24 16:30 028 4 gusting 4 8.3
2020-Jan-24 16:24 045 3 gusting 4 8.3
2020-Jan-24 16:18 043 3 gusting 3 7.8
2020-Jan-24 16:12 027 3 gusting 4 8.3
2020-Jan-24 16:06 023 2 gusting 3 7.8
2020-Jan-24 16:00 039 2 gusting 3 7.2
2020-Jan-24 15:54 034 3 gusting 3 7.2
2020-Jan-24 15:48 025 3 gusting 4 6.7
2020-Jan-24 15:36 029 5 gusting 5 5.6
2020-Jan-24 15:30 029 5 gusting 5 5.6
2020-Jan-24 15:24 030 6 gusting 6 5.0
2020-Jan-24 15:18 035 6 gusting 7 5.0
2020-Jan-24 15:12 037 7 gusting 8 4.4
2020-Jan-24 15:06 041 7 gusting 8 4.4
2020-Jan-24 15:00 049 7 gusting 8 4.4
2020-Jan-24 14:54 051 6 gusting 7 3.9
2020-Jan-24 14:48 049 6 gusting 6 3.9
2020-Jan-24 14:42 042 6 gusting 6 3.9
2020-Jan-24 14:36 045 6 gusting 6 3.3
2020-Jan-24 14:30 054 6 gusting 6 3.3
2020-Jan-24 14:24 049 6 gusting 6 3.3
2020-Jan-24 14:18 048 6 gusting 6 2.8
2020-Jan-24 14:12 050 5 gusting 6 2.8
2020-Jan-24 14:06 049 4 gusting 5 2.8
2020-Jan-24 14:00 041 4 gusting 5 2.8
2020-Jan-24 13:54 044 2 gusting 3 2.8
2020-Jan-24 13:48 063 3 gusting 5 2.8
2020-Jan-24 13:42 076 3 gusting 4 2.2
2020-Jan-24 13:36 049 3 gusting 4 1.7
2020-Jan-24 13:30 061 3 gusting 4 1.7
2020-Jan-24 13:24 042 2 gusting 3 1.7
2020-Jan-24 13:18 036 2 gusting 2 1.1
2020-Jan-24 13:12 038 1 gusting 2 1.1
2020-Jan-24 13:06 036 2 gusting 3 1.1
2020-Jan-24 12:54 034 2 gusting 2 0.6
2020-Jan-24 12:48 015 2 gusting 2 -0.0
2020-Jan-24 12:42 046 1 gusting 2 -0.0
2020-Jan-24 12:36 063 2 gusting 2 -0.0
2020-Jan-24 12:30 043 1 gusting 1 -0.0
2020-Jan-24 12:24 052 0 gusting 1 -0.0
2020-Jan-24 12:18 070 0 gusting 0 -0.0
2020-Jan-24 12:12 338 0 gusting 1 -0.0
2020-Jan-24 12:06 325 0.6
2020-Jan-24 12:00 306 0 gusting 0 0.6
2020-Jan-24 11:54 001 0 gusting 1 0.6
2020-Jan-24 11:48 042 1 gusting 1 0.6
2020-Jan-24 11:42 037 1 gusting 1 0.6
2020-Jan-24 11:36 027 1 gusting 1 0.6
2020-Jan-24 11:30 041 1 gusting 1 0.6
2020-Jan-24 11:24 035 2 gusting 2 0.6
2020-Jan-24 11:18 046 2 gusting 2 0.6
2020-Jan-24 11:12 031 1 gusting 1 0.6
2020-Jan-24 11:06 031 2 gusting 3 0.6
2020-Jan-24 11:00 041 3 gusting 4 0.6
2020-Jan-24 10:54 050 2 gusting 3 0.6
2020-Jan-24 10:48 070 2 gusting 3 0.6
2020-Jan-24 10:42 050 2 gusting 2 1.1
2020-Jan-24 10:36 046 3 gusting 3 1.1
2020-Jan-24 10:30 040 3 gusting 3 1.1
2020-Jan-24 10:24 056 2 gusting 3 0.6
2020-Jan-24 10:18 049 1 gusting 2 0.6
2020-Jan-24 10:12 037 1 gusting 2 0.6
2020-Jan-24 10:06 025 1 gusting 2 1.1
2020-Jan-24 10:00 038 1 gusting 1 1.1
2020-Jan-24 09:54 037 1 gusting 1 1.1
2020-Jan-24 09:48 040 1 gusting 1 1.1
2020-Jan-24 09:42 016 0 gusting 1 1.1
2020-Jan-24 09:24 032 1.1
2020-Jan-24 09:18 048 0 gusting 1 1.1
2020-Jan-24 09:12 010 1.1
2020-Jan-24 09:06 013 1.1
2020-Jan-24 09:00 029 1.1
2020-Jan-24 08:48 037 1.1
2020-Jan-24 08:42 037 1.7
2020-Jan-24 08:36 028 1 gusting 1 1.7
2020-Jan-24 08:30 049 1 gusting 1 1.7
2020-Jan-24 08:24 072 2 gusting 2 1.7
2020-Jan-24 08:18 057 1 gusting 2 1.7
2020-Jan-24 08:12 054 1.7
2020-Jan-24 08:06 051 1.7
2020-Jan-24 08:00 021 1.7
2020-Jan-24 07:54 217 2.2
2020-Jan-24 07:48 191 2.2
2020-Jan-24 07:42 231 2.2
2020-Jan-24 07:36 244 0 gusting 1 2.2
2020-Jan-24 07:30 281 0 gusting 1 2.2
2020-Jan-24 07:24 289 2.2
2020-Jan-24 07:18 284 2.2
2020-Jan-24 07:12 262 0 gusting 0 2.8
2020-Jan-24 07:06 275 0 gusting 1 2.8
2020-Jan-24 07:00 143 2.8
2020-Jan-24 06:54 130 2.8
2020-Jan-24 06:48 168 2.8
2020-Jan-24 06:42 213 2.8
2020-Jan-24 06:36 214 0 gusting 1 2.8
2020-Jan-24 06:30 196 0 gusting 1 2.8
2020-Jan-24 06:24 184 0 gusting 0 2.8
2020-Jan-24 06:18 177 0 gusting 0 2.8
2020-Jan-24 06:12 182 1 gusting 1 2.8
2020-Jan-24 06:06 181 0 gusting 0 2.8
2020-Jan-24 06:00 169 0 gusting 1 2.8
2020-Jan-24 05:54 174 1 gusting 1 3.3
2020-Jan-24 05:48 206 0 gusting 1 3.3
2020-Jan-24 05:42 217 2 gusting 2 3.3
2020-Jan-24 05:36 227 2 gusting 2 3.3
2020-Jan-24 05:30 218 3 gusting 3 3.3
2020-Jan-24 05:24 222 5 gusting 6 3.3
2020-Jan-24 05:18 225 6 gusting 7 3.3
2020-Jan-24 05:12 222 6 gusting 7 3.3
2020-Jan-24 05:06 222 7 gusting 8 3.3
2020-Jan-24 05:00 223 8 gusting 9 3.3
2020-Jan-24 04:54 227 7 gusting 8 3.3
2020-Jan-24 04:48 218 6 gusting 7 3.3
2020-Jan-24 04:42 215 6 gusting 6 3.3
2020-Jan-24 04:36 213 5 gusting 6 3.3
2020-Jan-24 04:30 221 6 gusting 7 3.9
2020-Jan-24 04:24 222 6 gusting 6 3.3
2020-Jan-24 04:18 223 5 gusting 6 3.3
2020-Jan-24 04:12 215 5 gusting 6 3.3
2020-Jan-24 04:06 210 6 gusting 7 3.3
2020-Jan-24 04:00 213 6 gusting 8 3.3
2020-Jan-24 03:54 215 7 gusting 8 3.3
2020-Jan-24 03:48 219 6 gusting 6 3.3
2020-Jan-24 03:42 213 6 gusting 7 3.3
2020-Jan-24 03:36 214 6 gusting 7 3.3
2020-Jan-24 03:30 210 6 gusting 6 3.3
2020-Jan-24 03:24 222 7 gusting 9 3.3
2020-Jan-24 03:18 221 6 gusting 7 3.3
2020-Jan-24 03:12 214 6 gusting 7 3.3
2020-Jan-24 03:06 218 6 gusting 8 3.3
2020-Jan-24 03:00 218 7 gusting 9 3.3
2020-Jan-24 02:54 219 8 gusting 10 3.9
2020-Jan-24 02:48 224 9 gusting 11 3.9
2020-Jan-24 02:42 226 9 gusting 11 3.9
2020-Jan-24 02:36 225 7 gusting 9 3.9
2020-Jan-24 02:30 227 6 gusting 7 3.3
2020-Jan-24 02:24 223 6 gusting 6 3.3
2020-Jan-24 02:18 219 6 gusting 6 3.3
2020-Jan-24 02:12 224 7 gusting 9 3.3
2020-Jan-24 02:06 228 7 gusting 9 3.3
2020-Jan-24 02:00 225 7 gusting 9 3.3
2020-Jan-24 01:54 218 6 gusting 8 3.3
2020-Jan-24 01:48 213 6 gusting 7 3.3
2020-Jan-24 01:42 218 6 gusting 6 3.3
2020-Jan-24 01:36 210 5 gusting 6 3.3
2020-Jan-24 01:30 216 3 gusting 4 3.3
2020-Jan-24 01:24 209 4 gusting 5 3.3
2020-Jan-24 01:18 216 5 gusting 6 3.3
2020-Jan-24 01:12 214 6 gusting 6 3.3
2020-Jan-24 01:06 204 6 gusting 6 3.3
2020-Jan-24 01:00 219 6 gusting 8 3.3
2020-Jan-24 00:54 225 7 gusting 7 3.3
2020-Jan-24 00:42 219 8 gusting 9 3.3
2020-Jan-24 00:36 222 7 gusting 8 3.3
2020-Jan-24 00:30 222 8 gusting 9 3.3
2020-Jan-24 00:24 226 8 gusting 9 3.3
2020-Jan-24 00:18 229 8 gusting 9 3.9
2020-Jan-24 00:12 227 8 gusting 10 3.9
2020-Jan-24 00:06 225 9 gusting 10 3.9
2020-Jan-23 23:48 218 6 gusting 7 3.9
2020-Jan-23 23:42 220 7 gusting 8 3.9
2020-Jan-23 23:36 227 6 gusting 8 3.9
2020-Jan-23 23:30 222 6 gusting 7 3.9
2020-Jan-23 23:24 220 4 gusting 5 3.9
2020-Jan-23 23:18 203 4 gusting 5 4.4
2020-Jan-23 23:12 206 4 gusting 5 4.4
2020-Jan-23 23:06 204 5 gusting 6 3.9
2020-Jan-23 23:00 197 5 gusting 6 3.9
2020-Jan-23 22:54 196 4 gusting 6 3.9
2020-Jan-23 22:48 192 5 gusting 6 4.4
2020-Jan-23 22:42 189 5 gusting 6 4.4
2020-Jan-23 22:36 192 6 gusting 7 4.4
2020-Jan-23 22:24 182 2 gusting 4 4.4
2020-Jan-23 22:18 146 2 gusting 4 4.4
2020-Jan-23 22:12 139 1 gusting 3 5.0
2020-Jan-23 22:06 169 4 gusting 6 5.0
2020-Jan-23 22:00 191 5 gusting 6 5.0
2020-Jan-23 21:54 201 5 gusting 6 5.0
2020-Jan-23 21:48 192 5 gusting 6 5.0
2020-Jan-23 21:42 186 4 gusting 5 5.6
2020-Jan-23 21:36 172 3 gusting 4 5.0
2020-Jan-23 21:30 186 1 gusting 2 5.0
2020-Jan-23 21:24 201 2 gusting 3 5.6
2020-Jan-23 21:18 198 3 gusting 4 5.6
2020-Jan-23 21:12 188 4 gusting 5 6.1
2020-Jan-23 21:06 189 4 gusting 5 6.1
2020-Jan-23 21:00 190 4 gusting 6 6.1
2020-Jan-23 20:54 190 4 gusting 6 6.1
2020-Jan-23 20:48 191 5 gusting 7 6.1
2020-Jan-23 20:42 180 5 gusting 6 6.1
2020-Jan-23 20:36 179 5 gusting 7 4.4
2020-Jan-23 20:24 207 6 gusting 6 4.4
2020-Jan-23 20:18 226 6 gusting 6 4.4
2020-Jan-23 20:12 226 6 gusting 6 4.4
2020-Jan-23 20:06 226 6 gusting 7 5.0
2020-Jan-23 20:00 223 6 gusting 6 5.0
2020-Jan-23 19:54 217 6 gusting 6 5.0
2020-Jan-23 19:48 223 6 gusting 6 5.0
2020-Jan-23 19:42 220 6 gusting 6 5.6
2020-Jan-23 19:36 227 6 gusting 6 5.6
2020-Jan-23 19:30 221 6 gusting 7 5.6
2020-Jan-23 19:18 226 6 gusting 7 5.6
2020-Jan-23 19:12 219 7 gusting 7 6.1
2020-Jan-23 19:06 218 7 gusting 7 5.6
2020-Jan-23 19:00 209 8 gusting 9 5.6
2020-Jan-23 18:54 212 7 gusting 8 5.6
2020-Jan-23 18:48 211 8 gusting 9 5.6
2020-Jan-23 18:42 212 8 gusting 9 5.6
2020-Jan-23 18:36 212 8 gusting 9 5.6
2020-Jan-23 18:30 215 9 gusting 10 5.6
2020-Jan-23 18:24 214 10 gusting 11 5.0
2020-Jan-23 18:18 212 11 gusting 12 5.0
2020-Jan-23 18:12 214 12 gusting 13 5.0
2020-Jan-23 18:06 214 12 gusting 13 5.0
2020-Jan-23 18:00 215 11 gusting 13 4.4
2020-Jan-23 17:54 216 11 gusting 12 4.4
2020-Jan-23 17:48 218 11 gusting 13 4.4
2020-Jan-23 17:42 222 11 gusting 12 4.4
2020-Jan-23 17:36 225 12 gusting 13 4.4
2020-Jan-23 17:30 226 12 gusting 13 4.4
2020-Jan-23 17:24 226 13 gusting 13 4.4
2020-Jan-23 17:18 223 13 gusting 13 4.4
2020-Jan-23 17:12 225 12 gusting 13 4.4
2020-Jan-23 17:06 228 11 gusting 12 3.9
2020-Jan-23 17:00 219 11 gusting 13 3.9
2020-Jan-23 16:54 220 11 gusting 12 3.9
2020-Jan-23 16:48 220 11 gusting 13 3.9
2020-Jan-23 16:42 220 11 gusting 13 3.9
2020-Jan-23 16:36 224 10 gusting 11 3.9
2020-Jan-23 16:30 225 9 gusting 10 3.9
2020-Jan-23 16:24 217 11 gusting 12 3.9
2020-Jan-23 16:18 215 11 gusting 12 3.3
2020-Jan-23 16:12 213 11 gusting 12 3.3
2020-Jan-23 16:06 216 11 gusting 13 3.3
2020-Jan-23 16:00 220 12 gusting 13 3.3
2020-Jan-23 15:54 220 13 gusting 14 3.3
2020-Jan-23 15:48 216 13 gusting 14 3.3
2020-Jan-23 15:42 218 12 gusting 13 3.3
2020-Jan-23 15:36 219 11 gusting 12 3.3
2020-Jan-23 15:30 223 11 gusting 13 3.3
2020-Jan-23 15:24 223 10 gusting 13 2.8
2020-Jan-23 15:18 223 10 gusting 12 2.8
2020-Jan-23 15:12 224 11 gusting 13 2.8
2020-Jan-23 15:06 225 10 gusting 12 2.2
2020-Jan-23 15:00 227 9 gusting 11 2.2
2020-Jan-23 14:54 227 10 gusting 11 1.7
2020-Jan-23 14:48 227 10 gusting 13 1.7
2020-Jan-23 14:42 226 9 gusting 10 1.7
2020-Jan-23 14:36 226 10 gusting 11 1.7
2020-Jan-23 14:30 229 11 gusting 12 1.7
2020-Jan-23 14:24 228 11 gusting 12 1.7
2020-Jan-23 14:18 229 11 gusting 12 1.7
2020-Jan-23 14:12 232 11 gusting 12 1.7
2020-Jan-23 14:06 230 11 gusting 12 1.1
2020-Jan-23 14:00 227 11 gusting 12 1.1